IZ5MMH-4 Weather Reports


Display with metric or nautical units.
time (UTC)temp
F
wind
direction
speed
MPH
gust
MPH
rain 1hr
in
rain 24hr
in
rain mn
in
humidity
%
barometer
mb
20260507054437 61 0.0 0.0 0.00 0.00 0.00 90 1015.7
20260507053437 61 0.0 0.0 0.00 0.00 0.00 90 1015.7
20260507052437 60 0.0 0.0 0.00 0.00 0.00 89 1015.6
20260507051437 60 0.0 0.0 0.00 0.00 0.00 89 1015.6
20260507050438 60 0.0 0.0 0.00 0.00 0.00 88 1015.4
20260507045438 60 0.0 0.0 0.00 0.00 0.00 88 1015.3
20260507044437 60 0.0 0.0 0.00 0.00 0.00 88 1015.3
20260507043437 59 0.0 0.0 0.00 0.00 0.00 88 1015.2
20260507042438 60 0.0 0.0 0.00 0.00 0.00 87 1015.1
20260507041438 60 0.0 0.0 0.00 0.00 0.00 87 1015.1
20260507040437 60 0.0 0.0 0.00 0.00 0.00 87 1015.0
20260507035437 60 0.0 0.0 0.00 0.00 0.00 86 1015.1
20260507034437 60 0.0 0.0 0.00 0.00 0.00 86 1015.0
20260507033437 60 0.0 0.0 0.00 0.00 0.00 87 1015.1
20260507032437 60 0.0 0.0 0.00 0.00 0.00 87 1015.1
20260507031437 60 0.0 0.0 0.00 0.00 0.00 87 1015.2
20260507030437 60 0.0 0.0 0.00 0.00 0.00 87 1015.1
20260507025438 60 0.0 0.0 0.00 0.00 0.00 87 1015.1
20260507024438 60 0.0 0.0 0.00 0.00 0.00 87 1015.1
20260507023437 60 0.0 0.0 0.00 0.00 0.00 86 1015.1
20260507022438 61 0.0 0.0 0.00 0.00 0.00 86 1015.1
20260507021437 61 0.0 0.0 0.00 0.00 0.00 87 1015.1
20260507020437 61 0.0 0.0 0.00 0.00 0.00 87 1015.0
20260507015437 61 0.0 0.0 0.00 0.00 0.00 87 1015.0
20260507014438 61 0.0 0.0 0.00 0.00 0.00 87 1014.9
20260507013438 61 0.0 0.0 0.00 0.00 0.00 87 1014.9
20260507012437 61 0.0 0.0 0.00 0.00 0.00 87 1014.9
20260507011438 62 0.0 0.0 0.00 0.00 0.00 86 1014.9
20260507010437 62 0.0 0.0 0.00 0.00 0.00 86 1014.9
20260507005438 62 0.0 0.0 0.00 0.00 0.00 87 1014.9
20260507004438 62 0.0 0.0 0.00 0.00 0.00 86 1014.9
20260507003437 62 0.0 0.0 0.00 0.00 0.00 86 1015.1
20260507002439 62 0.0 0.0 0.00 0.00 0.00 86 1014.9
20260507001437 62 0.0 0.0 0.00 0.00 0.00 86 1014.9
20260507000438 62 0.0 0.0 0.00 0.00 0.00 86 1014.9
20260506235438 62 0.0 0.0 0.00 0.00 0.00 84 1014.8
20260506234438 62 0.0 0.0 0.00 0.00 0.00 85 1014.8
20260506233437 62 0.0 0.0 0.00 0.00 0.00 85 1014.9
20260506232437 63 0.0 0.0 0.00 0.00 0.00 85 1014.9
20260506231438 63 0.0 0.0 0.00 0.00 0.00 83 1014.9
20260506230437 63 0.0 0.0 0.00 0.00 0.00 82 1014.8
20260506225438 64 0.0 0.0 0.00 0.00 0.00 82 1014.9
20260506224437 64 0.0 0.0 0.00 0.00 0.00 81 1015.1
20260506223437 65 0.0 0.0 0.00 0.00 0.00 75 1015.1
20260506222437 65 0.0 0.0 0.00 0.00 0.00 76 1015.0
20260506221437 65 0.0 0.0 0.00 0.00 0.00 76 1014.9
20260506220437 65 0.0 0.0 0.00 0.00 0.00 78 1014.8
20260506215437 66 0.0 0.0 0.00 0.00 0.00 81 1015.0
20260506214438 66 0.0 0.0 0.00 0.00 0.00 94 1014.9
20260506213437 66 0.0 0.0 0.00 0.00 0.00 95 1014.7
20260506212438 66 0.0 0.0 0.00 0.00 0.00 95 1014.8
20260506211438 66 0.0 0.0 0.00 0.00 0.00 95 1014.6
20260506210438 66 0.0 0.0 0.00 0.00 0.00 95 1014.6
20260506205437 66 0.0 0.0 0.00 0.00 0.00 94 1014.5
20260506204438 66 0.0 0.0 0.00 0.00 0.00 94 1014.5
20260506203437 67 0.0 0.0 0.00 0.00 0.00 94 1014.4
20260506202437 67 0.0 0.0 0.00 0.00 0.00 95 1014.4
20260506201438 67 0.0 0.0 0.00 0.00 0.00 95 1014.3
20260506200437 67 0.0 0.0 0.00 0.00 0.00 95 1014.2
20260506194437 67 0.0 0.0 0.00 0.00 0.00 94 1013.9
20260506193438 67 0.0 0.0 0.00 0.00 0.00 94 1013.8
20260506192438 67 0.0 0.0 0.00 0.00 0.00 93 1013.6
20260506191437 67 0.0 0.0 0.00 0.00 0.00 92 1013.4
20260506190437 67 0.0 0.0 0.00 0.00 0.00 92 1013.4
20260506185438 67 0.0 0.0 0.00 0.00 0.00 92 1013.2
20260506184438 67 0.0 0.0 0.00 0.00 0.00 91 1013.1
20260506183438 68 0.0 0.0 0.00 0.00 0.00 91 1013.0
20260506182437 68 0.0 0.0 0.00 0.00 0.00 92 1012.9
20260506181437 68 0.0 0.0 0.00 0.00 0.00 91 1013.0
20260506180437 68 0.0 0.0 0.00 0.00 0.00 91 1012.8
20260506175438 68 0.0 0.0 0.00 0.00 0.00 90 1012.8
20260506174437 68 0.0 0.0 0.00 0.00 0.00 90 1012.6
20260506173437 68 0.0 0.0 0.00 0.00 0.00 89 1012.6
20260506172438 68 0.0 0.0 0.00 0.00 0.00 89 1012.7
20260506171438 69 0.0 0.0 0.00 0.00 0.00 87 1012.7
20260506170437 69 0.0 0.0 0.00 0.00 0.00 86 1012.6
20260506165437 69 0.0 0.0 0.00 0.00 0.00 85 1012.6
20260506164438 69 0.0 0.0 0.00 0.00 0.00 84 1012.7
20260506163438 69 0.0 0.0 0.00 0.00 0.00 83 1012.6
20260506162438 70 0.0 0.0 0.00 0.00 0.00 82 1012.8
20260506161437 70 0.0 0.0 0.00 0.00 0.00 82 1012.9
20260506160437 70 0.0 0.0 0.00 0.00 0.00 81 1012.9
20260506155438 71 0.0 0.0 0.00 0.00 0.00 79 1013.0
20260506154437 72 0.0 0.0 0.00 0.00 0.00 76 1012.8
20260506153437 72 0.0 0.0 0.00 0.00 0.00 76 1012.9
20260506152437 73 0.0 0.0 0.00 0.00 0.00 77 1012.7
20260506151438 72 0.0 0.0 0.00 0.00 0.00 78 1012.7
20260506150437 72 0.0 0.0 0.00 0.00 0.00 79 1012.7
20260506145437 71 0.0 0.0 0.00 0.00 0.00 81 1012.9
20260506144438 71 0.0 0.0 0.00 0.00 0.00 83 1012.8
20260506143437 70 0.0 0.0 0.00 0.00 0.00 85 1012.8
20260506142438 70 0.0 0.0 0.00 0.00 0.00 83 1012.8
20260506141437 69 0.0 0.0 0.00 0.00 0.00 85 1012.8
20260506140437 70 0.0 0.0 0.00 0.00 0.00 82 1012.9
20260506135437 70 0.0 0.0 0.00 0.00 0.00 84 1012.9
20260506134437 70 0.0 0.0 0.00 0.00 0.00 85 1012.8
20260506133438 70 0.0 0.0 0.00 0.00 0.00 85 1013.0
20260506132438 70 0.0 0.0 0.00 0.00 0.00 87 1013.0
20260506131438 69 0.0 0.0 0.00 0.00 0.00 88 1013.1
20260506130438 69 0.0 0.0 0.00 0.00 0.00 88 1013.2
20260506124438 69 0.0 0.0 0.00 0.00 0.00 90 1013.2
20260506123438 69 0.0 0.0 0.00 0.00 0.00 91 1013.2
20260506122438 69 0.0 0.0 0.00 0.00 0.00 89 1013.3
20260506121437 69 0.0 0.0 0.00 0.00 0.00 91 1013.3
20260506120438 69 0.0 0.0 0.00 0.00 0.00 92 1013.3
20260506115438 68 0.0 0.0 0.00 0.00 0.00 91 1013.2
20260506114438 69 0.0 0.0 0.00 0.00 0.00 91 1013.2
20260506113438 68 0.0 0.0 0.00 0.00 0.00 90 1013.2
20260506112437 68 0.0 0.0 0.00 0.00 0.00 95 1013.2
20260506111437 68 0.0 0.0 0.00 0.00 0.00 96 1013.2
20260506110437 68 0.0 0.0 0.00 0.00 0.00 97 1013.3
20260506105439 68 0.0 0.0 0.00 0.00 0.00 97 1013.4
20260506104437 68 0.0 0.0 0.00 0.00 0.00 10 1013.4
20260506103437 67 0.0 0.0 0.00 0.00 0.00 99 1013.3
20260506102437 67 0.0 0.0 0.00 0.00 0.00 10 1013.5
20260506101437 67 0.0 0.0 0.00 0.00 0.00 10 1013.4
20260506100438 66 0.0 0.0 0.00 0.00 0.00 10 1013.3
20260506095438 66 0.0 0.0 0.00 0.00 0.00 10 1013.3
20260506094438 65 0.0 0.0 0.00 0.00 0.00 10 1013.3
20260506093438 65 0.0 0.0 0.00 0.00 0.00 10 1013.3
20260506092438 65 0.0 0.0 0.00 0.00 0.00 10 1013.1
20260506091437 65 0.0 0.0 0.00 0.00 0.00 99 1013.1
20260506090438 65 0.0 0.0 0.00 0.00 0.00 99 1012.8
20260506085438 65 0.0 0.0 0.00 0.00 0.00 99 1012.9
20260506084438 65 0.0 0.0 0.00 0.00 0.00 98 1013.0
20260506083437 65 0.0 0.0 0.00 0.00 0.00 96 1012.9
20260506082437 65 0.0 0.0 0.00 0.00 0.00 92 1012.7
20260506081438 65 0.0 0.0 0.00 0.00 0.00 90 1012.8
20260506080438 65 0.0 0.0 0.00 0.00 0.00 90 1012.7
20260506073438 65 0.0 0.0 0.00 0.00 0.00 92 1012.8
20260506072438 65 0.0 0.0 0.00 0.00 0.00 94 1012.7
20260506071438 65 0.0 0.0 0.00 0.00 0.00 95 1012.7
20260506070437 65 0.0 0.0 0.00 0.00 0.00 96 1012.7
20260506062438 64 0.0 0.0 0.00 0.00 0.00 92 1012.5
20260506061437 64 0.0 0.0 0.00 0.00 0.00 97 1012.4
20260506060438 64 0.0 0.0 0.00 0.00 0.00 10 1012.4